PRAETORIAN SDA_611

Last updated on Sun Jun 21 2026 00:03:46 GMT+0000 (Coordinated Universal Time)

1 65574U 25203K 26171.31132722 .00000106 00000+0 86060-4 0 9997 2 65574 81.3015 8.0406 0005502 185.6554 174.4541 13.83309355 39111
UTC large
Height (km)
Speed (km/s)
/
Latitude / Longitude
Inclination (degrees)
Orbital Period (minutes)
Azimuth
Elevation
Range (km)
Doppler Factor

Next 0 passes for location: London (51.5072 / 0.1276)

No passes found over London.
PRAETORIAN SDA_611